Погода в Баунте

Россия / Республика Бурятия     55°15′13″N   113°07′07″E
темп.,
°C
ветер,
м/с
пор.,
м/с
влажн.,
%
обл.,
%
осадки,
мм/ч
давл.,
гПа
погр.,
м
22 октября, пт
пт2223:00−3зсз11709 0.0 102710
02:00−4зсз11735 0.0 102610
05:00−4зсз117681 0.0 102510
08:00−4зсз117520 0.0 102410
11:000зюз115672 0.0 1022212
14:00+3зюз114916 0.0 1020375
17:00−1зсз11659 0.0 102010
20:00−2сз22656 0.0 102111
23 октября, сб
сб2323:00−2зсз22635 0.0 102211
02:00−3зсз126418 0.0 102211
05:00−3зсз11645 0.0 102211
08:00−3зсз11615 0.0 102311
11:00+2зюз11475 0.0 1021192
14:00+3юз114531 0.0 1019332
17:000зсз116210 0.0 102010
20:00−1сз116268 0.0 102110
24 октября, вс
вс2423:00−2зсз22595 0.0 102011
02:00−3зсз226471 0.0 102015
05:00−3зсз2266100 0.0 101918
08:00−4зсз22675 0.0 102025
11:00+1з22525 0.0 1017312
14:00+2з33495 0.0 1015578
17:00−2зсз336754 0.0 101731
20:00−2зсз2269100 0.0 101743
25 октября, пн
пн2523:00−3з237235 0.0 101748
02:00−4з2269100 0.0 101742
05:00−4з2376100 0.0 101748
08:00−4з2380100 0.0 101678
11:00−1зюз346496 0.0 1014304
14:00+1з57527 0.0 10121225
17:00−2зсз227451 0.0 101529
20:00−4зсз22818 0.0 101839
26 октября, вт
вт2623:00−4з33826 0.0 101959
02:00−5зсз23827 0.0 102044
05:00−6зсз228298 0.0 102124
08:00−6з2282100 0.0 102176
11:00−4зюз2367100 0.0 1018365
14:00−3зюз2363100 0.1 1014569
17:00−5з22746 0.1 101427
20:00−5з33835 0.1 101452